Wind_Speed
22 21 21 21 22 22 21 20 20 18 17 15 14 14 14 13 11 11 12 11 10 10 10 10 9 9 9 9 8 7 7 8 8 9 9 9 10 11 11 11 11 11 11 12 12 12 13 13 13 14 14 14 14 15 15 15 15 15 16 16 17 17 16 15 16 16 15 15 14
20 19 20 21 22 22 22 21 20 19 18 17 16 15 14 13 12 12 12 12 11 11 10 9 9 9 8 8 7 7 6 6 7 7 7 8 9 9 10 10 10 11 11 11 12 12 12 12 13 13 14 14 14 15 15 16 15 16 16 16 16 16 15 15 15 15 15 14 14
19 16 15 16 18 20 20 20 20 20 19 18 17 16 15 14 13 13 12 12 12 11 10 9 8 8 8 8 8 7 7 7 7 6 6 6 7 8 9 9 10 11 11 11 11 12 12 12 13 13 13 14 14 14 14 15 15 16 16 16 15 15 15 15 14 13 13 12 13
20 16 14 14 15 17 18 18 18 19 18 18 17 16 15 14 13 12 12 11 10 9 9 8 7 7 7 7 7 8 8 8 8 7 6 6 7 7 8 9 9 10 10 11 11 11 12 12 13 13 13 13 13 13 12 12 13 14 15 15 15 15 15 15 14 12 11 11 12
19 18 16 16 16 16 16 16 16 16 17 16 15 14 13 13 12 11 10 9 8 8 9 8 6 6 6 7 7 7 7 8 8 8 8 8 8 8 9 9 10 10 10 11 11 11 12 12 13 13 13 14 14 13 13 12 12 13 14 15 15 15 15 14 13 12 12 12 12
22 24 24 23 20 18 16 16 16 15 15 15 14 13 12 11 10 9 8 8 8 8 8 8 7 6 6 6 6 6 7 8 9 9 10 10 11 11 11 11 12 12 12 12 12 12 12 12 13 13 14 14 14 14 14 13 13 13 13 14 15 15 15 14 13 12 12 12 11
24 27 30 30 27 23 21 19 18 17 16 15 14 13 12 12 11 10 9 8 8 7 7 7 7 7 6 6 7 7 8 9 10 11 12 13 13 14 14 14 15 15 15 15 14 14 14 14 14 14 14 14 14 14 13 13 13 12 12 12 12 13 13 13 12 12 12 12 11
28 32 35 35 32 28 25 23 21 19 18 17 16 15 15 14 12 11 10 9 8 7 7 7 7 8 8 8 9 10 11 12 12 12 13 14 14 15 15 15 15 16 16 16 15 15 15 15 15 15 14 13 13 13 13 12 12 12 12 10 10 10 11 11 11 11 11 10 10
24 30 34 35 34 31 28 26 24 22 21 19 19 18 17 15 14 12 10 9 8 8 8 8 9 10 10 10 11 12 12 12 12 12 13 13 13 14 14 14 14 14 14 14 14 14 14 15 15 15 14 13 13 12 12 11 12 13 12 11 9 9 9 10 10 10 10 9 9
17 21 24 27 29 30 30 28 26 24 23 21 20 19 17 16 14 12 11 10 9 9 9 9 10 10 10 11 11 11 11 11 11 11 11 11 11 11 11 11 11 12 12 12 12 12 13 13 14 14 14 13 12 12 12 12 12 12 13 12 11 10 9 9 9 9 9 9 9
14 15 15 16 20 24 26 27 26 24 22 21 19 18 16 15 13 12 11 10 8 8 9 10 10 9 9 9 9 9 9 9 8 8 9 9 9 9 9 9 10 10 10 11 11 11 11 11 11 12 12 12 12 12 12 12 12 12 13 12 12 12 11 11 10 10 10 10 10
17 15 13 12 13 16 19 22 22 21 20 19 17 15 14 13 12 11 10 8 7 7 8 8 8 7 7 6 6 6 6 6 6 6 6 7 7 8 8 8 9 9 9 9 10 9 9 9 10 10 10 11 11 11 11 11 11 11 12 12 12 12 12 12 12 11 11 10 10
20 18 15 12 11 11 13 15 16 16 16 16 14 13 12 11 10 9 8 7 6 6 6 5 5 4 4 4 4 4 4 4 4 4 5 5 6 7 7 8 8 8 9 9 9 8 8 8 8 9 9 9 10 10 10 9 10 10 11 11 11 12 12 12 12 12 11 11 11
20 19 17 14 11 10 9 10 11 12 12 13 12 11 10 9 8 8 7 6 6 5 4 3 3 3 2 2 2 2 2 2 3 3 3 4 5 6 7 7 8 8 8 8 8 8 7 7 7 7 8 8 9 9 8 8 8 9 9 10 10 11 11 11 11 10 10 10 11
19 19 17 15 11 9 8 8 7 8 9 10 10 10 9 8 8 7 7 7 6 5 4 3 3 2 2 2 2 2 2 2 2 2 3 4 5 6 6 7 7 7 7 7 7 6 6 5 5 6 6 7 7 6 6 6 6 6 7 7 8 8 8 9 9 9 9 10 11
19 19 17 15 11 9 7 6 5 6 7 8 9 9 8 8 7 7 7 7 6 6 5 4 3 2 2 2 2 2 2 2 2 2 3 4 4 5 5 6 6 7 6 6 5 5 3 2 3 4 5 5 4 3 3 3 4 4 4 4 4 5 5 5 6 6 7 8 9
20 20 18 15 12 9 8 7 5 5 6 7 8 8 8 8 8 7 7 7 7 6 5 4 3 2 2 2 2 1 1 2 2 2 2 3 3 3 4 5 5 5 4 3 2 1 2 2 2 2 2 2 1 1 2 3 3 4 4 4 4 4 4 4 4 4 4 4 5
18 20 20 18 14 12 10 8 7 6 7 7 7 8 8 8 8 8 7 7 6 5 4 3 2 2 2 2 2 1 1 1 1 1 2 2 1 2 2 3 3 3 2 2 3 4 5 4 4 3 2 1 1 2 3 3 4 4 5 5 6 6 6 6 6 5 4 3 3
11 14 17 19 17 14 12 10 9 8 8 8 8 8 9 9 8 8 7 6 5 5 4 3 2 2 2 3 2 1 1 0 0 1 1 1 1 1 1 2 3 5 6 6 6 6 7 6 5 4 4 3 3 4 4 4 5 5 6 6 7 7 7 7 7 7 6 5 5
5 6 9 13 15 15 13 11 10 9 9 9 9 9 9 8 7 7 7 6 5 4 4 4 3 3 2 2 2 2 1 1 1 1 2 3 4 4 4 4 5 6 6 7 7 8 8 8 7 7 6 6 6 6 6 6 6 6 6 6 7 7 7 7 8 8 8 8 8
1 1 2 5 9 11 12 11 11 10 10 10 10 10 9 8 7 7 7 6 6 5 5 4 4 3 3 3 3 2 2 2 1 2 2 5 6 7 6 6 6 7 7 8 8 9 9 8 8 8 8 8 8 8 8 7 7 7 7 7 7 7 8 8 9 9 9 9 9
3 2 2 1 3 6 9 10 10 10 10 10 10 9 8 8 7 7 7 7 7 6 6 5 4 3 3 3 2 2 2 2 2 3 4 5 6 6 6 7 7 7 8 8 8 8 8 8 8 8 8 9 9 9 9 8 8 8 8 8 8 8 9 9 10 10 10 10 10
5 4 3 2 1 3 6 8 8 9 9 10 10 9 8 8 8 8 8 8 8 7 6 4 3 3 3 3 3 3 3 3 4 5 5 6 7 6 5 6 6 7 8 8 8 7 7 7 7 8 8 9 9 9 10 9 9 9 9 9 9 9 9 9 9 10 10 10 10
6 5 4 3 1 2 3 5 5 6 8 9 10 9 9 8 9 9 9 9 8 7 6 4 4 4 4 4 4 4 5 5 6 6 7 8 8 7 6 6 7 8 8 9 8 8 8 8 8 7 7 7 8 8 9 10 10 10 9 9 9 9 9 9 9 9 10 10 10
7 6 5 4 3 1 1 2 3 5 7 9 9 9 9 9 9 9 9 9 8 7 6 5 5 4 5 5 6 6 6 6 7 8 9 9 9 8 7 7 8 9 9 9 9 9 9 8 8 7 7 7 7 7 8 9 9 10 10 10 9 9 9 9 9 10 10 10 10
7 7 7 6 5 4 3 2 4 6 7 8 8 8 8 9 9 9 8 8 7 6 6 5 5 6 6 6 7 7 7 7 8 9 10 11 11 10 8 8 9 10 10 11 11 10 10 10 9 8 7 7 8 8 9 9 9 9 10 10 10 9 9 8 9 9 9 9 9
7 7 7 6 5 5 5 6 6 7 7 7 7 8 8 8 8 8 8 7 6 6 6 6 6 7 7 7 8 8 8 8 9 10 11 11 12 11 10 9 9 11 12 12 12 12 11 11 10 9 9 9 9 10 10 10 10 10 10 10 10 9 9 8 8 8 8 9 8
7 7 7 6 6 6 7 8 8 8 8 7 7 8 8 8 8 8 7 7 6 5 5 6 6 6 7 7 8 9 9 10 11 11 12 12 12 12 11 10 11 12 12 13 13 13 13 12 12 11 10 10 11 11 10 10 10 10 10 10 10 9 9 8 8 8 8 8 8
7 7 7 7 6 7 7 8 9 9 8 8 8 8 8 8 8 8 7 6 6 5 5 5 6 6 7 8 9 9 10 12 13 14 14 14 14 14 13 13 13 13 13 13 13 13 13 12 12 12 12 11 11 10 9 9 9 9 8 8 8 8 7 7 8 8 8 8 8
6 7 7 7 7 7 8 8 9 9 9 9 8 8 9 9 8 7 7 7 6 6 6 6 7 8 8 8 8 9 9 10 11 12 13 14 15 16 17 16 14 13 13 13 13 13 12 12 12 11 11 11 10 9 8 7 7 7 7 7 7 7 7 7 8 8 8 8 8
6 7 8 8 7 8 8 9 9 10 10 10 9 9 9 9 8 7 7 7 7 7 7 8 9 9 9 9 8 8 8 8 9 9 10 11 12 14 16 17 16 14 12 12 12 12 11 11 11 11 11 11 10 8 7 7 7 6 6 6 7 7 7 7 7 8 8 8 8
6 7 8 8 8 8 9 9 9 10 10 10 10 10 9 8 7 7 7 8 8 8 8 9 10 10 10 10 10 10 9 9 9 9 9 9 10 12 13 15 15 14 12 11 11 11 11 10 10 10 11 11 10 9 8 7 6 6 6 6 7 7 7 7 7 7 8 8 7
7 7 8 8 9 9 9 9 9 9 9 10 10 9 8 7 7 7 7 7 8 8 8 9 9 9 9 9 9 9 9 10 10 10 9 9 9 10 11 12 13 13 13 11 10 10 10 9 9 9 10 10 10 8 7 7 6 6 6 6 6 6 6 6 6 6 7 7 7
7 7 8 8 9 9 9 9 9 8 9 9 9 8 7 6 5 5 6 6 7 7 8 8 9 9 9 8 9 9 9 10 10 10 10 10 10 10 11 11 11 12 12 11 10 9 8 8 8 8 8 9 8 7 7 6 6 5 5 6 6 6 6 6 5 6 6 7 7
6 6 7 8 9 10 9 9 8 8 8 9 8 7 5 3 3 4 5 6 6 7 8 8 9 9 9 9 9 9 10 10 10 10 10 10 10 10 11 11 10 10 11 10 9 8 7 7 7 7 7 7 6 6 6 5 5 5 5 5 5 5 5 5 5 5 5 6 7
6 6 7 9 10 10 10 9 8 8 8 8 7 6 4 1 2 3 5 6 7 7 8 8 9 9 9 9 9 10 10 10 10 10 10 10 10 10 10 10 10 10 10 10 9 8 6 5 6 6 6 6 6 6 6 5 5 4 5 5 5 5 5 4 4 5 5 6 6
8 8 9 10 11 11 10 9 8 8 8 7 7 5 3 1 3 4 5 6 7 7 8 8 9 9 9 10 10 10 10 10 10 10 9 9 9 9 9 9 9 10 10 9 9 8 7 5 5 6 6 7 7 6 6 5 5 4 4 4 4 5 4 4 4 4 5 6 6
11 11 11 11 10 10 9 8 8 8 7 7 6 5 3 2 4 5 5 6 6 7 8 9 9 9 10 10 10 10 10 9 9 9 9 9 9 8 8 9 10 10 10 9 9 9 8 6 5 6 6 7 7 7 6 6 5 5 4 4 4 4 4 4 4 4 5 5 6
11 11 11 10 9 8 8 8 9 9 8 7 6 6 5 5 6 6 6 6 7 7 8 9 9 9 9 9 9 9 9 8 8 8 8 8 8 9 9 10 10 11 11 9 9 8 8 7 6 6 6 6 7 6 6 5 5 5 5 5 4 4 4 4 4 4 4 5 6
9 9 9 9 8 7 7 7 8 9 8 7 7 6 6 6 6 7 8 8 8 8 8 8 8 8 8 8 8 8 8 7 7 7 7 8 9 10 10 10 10 10 10 9 8 8 7 7 6 5 5 5 5 6 5 5 5 5 5 5 5 5 4 4 4 4 5 5 5
7 7 7 7 7 7 7 7 7 8 8 8 7 6 6 5 5 6 7 8 8 8 7 7 7 7 7 6 6 6 6 6 6 6 7 7 8 9 10 9 9 9 8 8 7 7 7 6 5 4 4 4 5 5 5 5 5 5 6 6 6 5 5 5 5 5 5 5 5
Wind_Direction
238 240 240 235 227 225 226 227 227 227 225 222 220 220 220 217 215 217 220 220 218 219 221 222 224 229 236 240 240 241 245 250 250 248 247 247 249 251 252 252 250 249 248 247 248 248 248 248 249 250 251 252 252 252 252 253 252 249 246 243 243 242 240 238 238 238 236 234 233
247 239 231 223 219 220 223 224 225 226 226 225 223 222 220 218 217 218 220 220 220 222 223 226 229 232 237 242 243 243 246 252 254 255 254 254 254 254 253 252 252 252 252 253 253 253 252 252 252 253 254 255 256 256 257 257 255 252 248 245 244 243 242 240 240 241 239 236 234
252 244 233 224 220 219 221 222 222 223 224 224 224 223 221 219 218 219 219 221 222 223 223 224 230 233 236 239 241 242 244 246 250 252 253 255 256 255 254 253 254 255 256 257 257 256 256 256 256 257 257 258 259 259 259 259 259 256 251 246 244 243 242 241 241 241 239 237 234
254 251 245 238 231 227 225 224 224 223 222 222 222 221 219 218 218 218 218 220 221 220 219 220 225 231 234 234 237 240 243 245 246 249 251 253 255 255 255 255 255 256 257 258 258 258 258 258 259 260 260 260 259 259 258 259 259 258 254 249 246 244 243 242 242 241 239 237 235
266 266 261 251 240 233 229 227 225 222 220 219 218 216 216 215 214 213 213 215 216 219 218 217 218 224 231 234 238 244 249 253 254 255 258 260 261 261 260 259 258 258 258 257 257 257 257 258 259 260 261 260 259 258 258 257 257 256 255 253 251 249 248 246 245 243 241 239 237
271 270 265 255 243 233 228 225 222 218 215 213 209 207 207 208 207 206 205 207 213 218 219 218 219 225 234 241 248 256 262 267 268 269 270 271 270 269 268 266 264 261 260 258 257 257 257 258 259 260 260 260 260 260 259 258 258 258 257 257 256 255 253 250 249 247 245 243 241
264 263 258 250 242 235 230 227 222 216 211 207 203 201 202 204 204 202 202 205 211 215 220 225 230 237 246 256 264 270 273 276 278 279 278 278 276 274 274 272 269 267 264 263 262 261 260 260 261 262 262 262 261 261 260 260 259 259 260 259 260 259 258 255 253 252 251 249 246
255 254 250 244 239 235 232 229 224 216 209 204 201 201 203 204 202 201 201 204 207 215 225 236 244 253 261 268 274 277 279 280 282 282 282 281 280 278 277 276 275 272 271 269 268 266 265 264 263 262 263 263 263 262 261 261 261 261 260 259 259 260 260 259 258 257 256 255 250
246 245 242 238 233 230 229 227 223 216 208 203 201 201 202 202 199 196 196 201 213 225 237 249 258 265 271 274 277 279 280 282 283 284 284 283 283 282 281 280 279 277 276 274 273 271 269 267 265 263 262 263 263 263 262 262 262 262 261 260 259 258 259 261 261 262 262 260 255
240 239 236 230 224 221 219 217 215 211 205 200 198 197 197 196 195 195 199 209 223 237 249 258 265 270 273 276 277 278 279 281 284 285 287 287 288 288 287 286 284 283 281 279 277 275 272 270 267 265 264 263 264 264 264 264 263 262 261 261 261 260 260 260 261 263 264 264 260
236 239 236 227 216 209 205 203 201 198 196 192 190 189 189 191 193 197 205 217 230 243 253 260 264 268 269 272 274 276 278 281 284 288 291 294 295 295 294 292 290 289 287 284 281 278 274 271 268 267 266 266 266 266 266 266 264 263 262 262 262 263 263 263 262 262 263 263 262
229 233 235 230 214 200 191 187 185 185 184 183 183 184 186 190 195 201 210 219 227 238 249 256 259 260 263 265 270 275 279 282 287 291 296 299 300 299 298 296 295 293 291 289 284 280 275 272 270 269 269 269 268 268 268 269 268 267 266 265 265 265 265 265 265 264 263 263 263
222 223 223 220 209 193 181 175 173 174 176 178 180 183 187 190 195 201 206 210 214 224 236 244 247 249 252 258 265 272 277 282 290 296 299 299 298 299 299 298 297 296 294 291 286 281 276 273 273 273 273 273 272 271 272 275 275 273 271 270 268 267 267 267 267 266 265 265 265
213 212 210 206 197 189 180 173 169 170 173 176 178 181 183 185 190 193 193 191 192 197 206 219 225 230 233 238 247 256 264 275 285 290 291 292 293 295 296 296 296 295 293 291 287 282 276 273 274 275 276 277 277 278 281 284 283 280 277 275 273 272 271 271 271 270 269 269 268
199 198 197 192 187 183 181 176 172 171 172 172 173 175 176 176 179 178 173 168 166 168 173 182 191 201 212 214 222 238 254 266 273 277 281 287 290 293 295 297 297 295 290 285 281 276 271 268 276 281 284 284 286 292 298 300 298 294 290 288 285 283 281 279 277 275 272 271 269
189 187 187 185 182 178 174 173 174 176 174 169 167 166 164 163 163 159 154 149 148 150 156 160 163 173 194 210 222 235 247 256 264 272 280 285 289 295 300 303 301 294 285 275 268 257 247 256 286 295 295 292 294 307 326 335 335 333 332 332 326 317 309 303 297 288 280 274 271
189 189 191 192 189 185 180 178 180 181 175 165 158 153 151 151 150 147 143 139 138 139 140 143 149 160 176 194 212 224 234 248 260 276 286 287 292 305 311 310 307 301 290 277 259 188 129 86 21 344 324 306 308 19 35 31 29 26 25 25 24 19 11 2 350 334 315 298 282
195 197 200 203 201 196 190 185 181 176 169 159 150 147 145 146 145 141 136 130 124 121 120 125 144 164 173 179 186 193 204 231 267 293 300 300 310 329 330 324 342 2 27 57 80 83 77 64 50 29 14 17 76 78 63 53 51 52 53 51 49 46 42 37 29 23 12 351 325
207 202 201 201 199 195 189 182 175 169 164 158 153 150 148 146 142 135 125 116 108 106 113 126 144 165 173 174 165 154 142 137 28 344 352 24 56 48 24 24 41 51 60 68 75 72 64 58 57 54 50 49 56 58 57 56 58 60 59 56 53 50 48 45 43 41 39 35 33
229 208 193 188 184 181 177 172 169 168 166 161 158 154 150 143 134 123 113 106 106 112 125 137 143 151 156 153 143 135 125 106 97 69 65 75 81 81 76 69 67 70 73 76 78 74 69 68 67 64 57 51 48 51 57 60 62 62 61 59 56 55 54 54 52 50 48 47 49
305 280 189 167 162 160 160 163 167 168 166 161 157 152 143 132 120 112 109 110 117 126 134 138 140 138 135 133 131 131 124 113 121 117 89 77 78 77 73 68 66 70 76 81 83 83 83 82 77 69 60 54 51 51 53 56 58 60 61 61 61 61 62 61 59 56 53 51 53
6 2 10 85 133 144 152 160 166 167 164 158 150 141 129 120 115 113 116 122 128 133 135 135 135 131 129 127 129 125 118 118 131 128 103 81 76 72 67 65 65 67 70 73 78 83 87 89 85 77 68 60 54 50 49 49 49 51 54 56 57 56 56 56 55 54 53 52 53
11 9 9 17 92 142 153 160 164 162 155 147 137 128 120 118 119 123 127 130 131 133 133 133 130 125 122 120 119 117 112 110 111 106 97 87 82 76 72 70 71 72 71 70 72 77 83 85 83 77 71 64 59 53 47 45 42 43 45 48 50 48 46 44 46 47 48 48 48
10 5 358 355 18 144 158 164 162 151 138 129 123 120 120 124 128 130 130 129 130 132 133 133 126 119 114 111 109 107 102 95 92 91 91 90 88 85 80 76 77 77 75 71 70 72 75 75 72 69 67 66 64 60 54 48 41 38 40 42 44 42 39 36 37 39 41 41 41
8 359 352 347 344 331 191 168 140 121 113 110 112 117 123 128 128 127 124 123 125 129 131 128 125 118 112 109 109 107 101 93 86 84 86 86 89 88 83 77 76 77 76 73 69 66 65 66 65 66 67 69 68 65 61 55 48 44 42 42 41 39 36 34 33 33 34 34 34
9 4 358 353 349 347 357 31 67 83 91 98 104 111 116 119 119 117 116 118 122 127 130 126 121 115 110 105 108 111 107 93 82 79 79 80 83 84 81 79 79 79 79 77 74 69 65 65 67 69 71 73 70 66 62 56 51 49 47 46 41 37 33 31 30 29 28 28 29
21 18 15 13 11 12 18 29 44 58 71 83 92 100 104 106 107 109 112 116 122 128 129 124 116 111 108 102 105 108 105 94 85 82 81 79 75 74 76 82 85 85 84 81 78 75 72 71 71 71 71 71 71 67 61 55 49 46 45 44 40 36 32 29 28 26 24 24 24
38 36 36 37 36 34 33 34 36 42 52 67 80 90 97 100 101 104 109 114 120 125 125 122 117 114 109 102 103 105 105 99 93 89 85 80 71 65 66 77 84 87 86 83 80 77 75 72 72 69 66 67 67 66 63 58 51 47 44 41 37 33 31 29 28 26 24 21 20
48 48 49 51 51 46 40 35 32 33 40 54 69 83 92 94 95 98 103 109 114 116 116 116 115 113 109 105 104 104 102 98 94 90 84 78 69 63 61 67 77 84 86 84 81 77 74 71 68 65 63 63 64 64 63 61 58 54 49 44 38 33 30 28 28 27 23 20 17
51 51 52 54 55 50 43 36 32 32 35 45 58 72 80 84 85 88 94 100 105 109 111 109 108 108 107 107 105 101 96 92 90 87 82 76 70 64 61 62 68 76 81 83 81 77 73 69 65 63 62 62 63 65 64 63 63 61 57 50 41 35 32 30 29 27 23 18 14
51 51 52 53 53 49 43 38 34 33 34 40 49 60 68 72 75 80 87 92 96 99 104 106 107 107 108 107 102 97 92 89 85 83 81 78 74 68 64 62 60 64 73 81 82 78 73 68 64 61 59 59 60 62 61 61 61 60 57 49 40 33 29 28 25 23 20 17 12
52 50 48 47 48 46 43 38 34 32 33 38 44 51 57 63 71 79 85 90 94 98 100 102 104 107 108 105 100 96 92 88 84 81 80 80 79 76 70 63 58 56 60 71 80 81 76 69 63 57 53 51 53 55 56 55 55 53 50 44 36 30 26 23 20 17 14 11 9
49 46 42 40 41 41 38 34 30 29 33 37 38 41 46 55 69 81 87 92 98 101 101 100 101 102 101 99 96 93 91 89 87 84 81 79 79 78 73 66 56 49 46 53 68 78 78 71 63 54 45 41 43 45 46 45 44 43 39 34 30 25 21 18 14 11 8 6 5
45 41 38 37 38 37 33 27 23 24 29 34 33 32 34 44 66 82 90 95 101 103 103 101 100 99 98 97 95 94 92 89 88 86 83 80 77 75 71 64 55 45 39 40 48 61 72 73 65 55 44 37 36 36 35 34 33 31 28 25 22 20 17 13 10 7 5 3 1
40 38 38 39 40 38 31 22 17 19 24 29 28 25 26 37 70 91 99 102 106 107 105 103 102 101 99 97 95 93 91 88 85 83 81 79 76 71 66 60 53 45 38 34 34 40 56 69 68 61 52 45 38 32 26 23 22 21 19 16 16 16 15 13 10 7 5 4 3
38 39 41 43 43 38 29 20 15 16 20 22 21 20 23 43 118 124 117 112 111 109 106 105 104 102 99 96 93 90 88 86 83 79 76 74 71 67 61 55 49 43 36 30 25 23 31 51 63 61 51 42 33 24 17 11 7 6 7 7 10 12 12 14 14 12 11 8 7
38 42 45 45 42 35 25 18 15 16 19 19 18 19 28 113 155 145 130 118 114 111 108 105 104 102 99 96 92 89 87 84 80 75 70 65 61 59 56 51 42 35 30 27 20 13 12 22 40 43 38 31 23 17 10 4 359 357 358 0 2 7 10 12 15 17 17 15 13
40 42 45 45 41 32 23 15 17 20 22 20 20 24 39 98 134 134 125 115 115 112 109 107 105 104 101 99 96 92 89 86 81 73 66 58 53 50 48 44 34 26 21 21 17 10 4 3 11 19 22 22 18 13 7 1 356 355 356 358 0 4 10 12 15 17 19 20 18
37 38 41 42 40 34 24 17 20 24 27 24 24 29 47 72 98 110 112 110 109 108 109 108 107 107 106 104 100 97 93 88 81 73 65 56 49 43 39 35 27 19 13 13 14 10 5 3 5 11 16 15 13 9 5 0 357 358 0 1 0 2 7 12 13 15 17 19 20
35 34 36 39 39 35 29 24 23 24 25 26 25 33 47 63 87 104 112 113 108 106 107 108 108 108 108 106 103 101 96 90 82 74 65 55 46 39 34 29 24 16 11 11 12 11 7 7 11 16 18 17 12 8 5 1 359 1 2 2 359 359 2 7 10 12 13 15 19
44 40 38 40 39 36 31 29 26 24 21 23 25 31 44 64 89 107 115 117 115 114 113 113 113 112 112 109 106 104 100 92 82 71 60 52 45 38 32 27 22 17 14 15 15 13 12 13 14 18 31 40 24 14 10 7 5 4 3 1 358 356 357 0 4 7 9 11 15
Height
741 740 739 739 740 740 741 741 741 741 741 741 741 741 742 742 742 742 742 742 742 743 743 743 743 744 744 744 744 744 744 744 744 744 744 744 744 744 744 744 745 745 745 745 745 745 745 745 745 745 745 745 745 745 745 745 744 744 744 744 744 744 744 745 745 745 745 745 745
741 740 738 737 737 738 739 739 739 739 739 740 740 740 741 741 741 741 741 741 742 742 742 742 742 743 743 743 743 743 744 744 744 744 744 744 744 744 744 744 744 744 744 744 744 744 744 744 744 744 744 744 744 744 744 743 743 743 743 743 743 743 743 743 743 743 743 743 743
741 740 739 737 737 737 737 738 737 737 738 738 739 739 739 740 740 740 740 741 741 741 742 742 742 742 742 742 742 743 743 743 743 744 744 744 744 743 743 743 743 743 743 743 743 743 743 743 743 743 743 743 743 743 743 742 742 742 742 742 742 742 742 742 742 742 742 742 742
740 740 739 738 737 737 737 737 737 737 737 737 737 738 738 739 739 740 740 740 741 741 741 741 742 742 742 742 742 742 742 743 743 743 743 743 743 743 743 743 742 742 742 742 742 742 742 742 742 742 742 742 742 742 742 742 742 741 741 741 741 741 741 741 741 741 741 741 741
739 739 738 738 738 738 737 737 737 736 736 736 737 737 738 738 739 739 740 740 740 740 741 741 742 742 742 742 742 742 742 742 742 743 743 743 743 742 742 742 742 742 742 742 742 742 741 741 741 741 741 741 741 741 741 741 740 740 740 739 739 739 739 739 739 739 739 740 740
738 739 740 739 738 737 737 736 736 736 735 736 736 737 737 738 738 739 739 739 740 740 740 741 741 741 741 741 741 742 742 742 742 742 742 742 742 742 742 742 742 742 741 741 741 741 740 740 740 740 740 740 740 739 739 739 739 739 739 738 738 738 738 738 738 738 738 738 738
738 740 740 739 737 736 735 735 735 735 735 735 735 736 736 737 737 738 738 739 739 740 740 740 740 741 741 741 741 741 741 742 742 742 742 742 742 741 741 741 741 741 740 740 740 740 740 739 739 739 739 739 738 738 738 738 738 738 737 737 737 737 737 737 737 737 737 737 737
737 738 739 737 735 734 733 734 734 734 734 733 734 734 735 735 736 737 737 738 738 739 739 740 740 740 740 740 740 740 740 741 741 741 741 741 741 740 740 740 740 740 739 739 739 739 738 738 738 738 738 738 737 737 737 737 737 737 737 737 736 736 735 735 736 736 736 736 737
736 737 737 735 732 731 731 732 732 732 732 732 732 732 733 733 734 735 736 737 737 738 738 739 739 738 738 739 739 739 739 739 740 740 740 740 740 740 739 739 739 738 738 738 738 738 737 737 737 737 737 737 737 737 737 737 736 736 736 736 735 735 735 735 735 735 735 735 735
734 735 735 733 730 728 728 728 729 730 731 730 730 730 731 732 732 733 734 735 736 737 737 737 737 737 737 737 737 738 738 738 739 739 739 739 739 739 739 738 738 737 737 737 737 737 736 736 736 736 736 736 736 736 736 735 735 735 735 734 734 734 734 734 734 734 734 734 734
732 733 734 733 731 727 726 726 727 728 728 729 729 729 729 730 731 732 733 733 734 735 736 736 736 736 736 736 737 737 737 737 737 738 738 738 738 738 738 737 737 737 736 736 736 736 735 735 735 734 734 734 735 734 734 734 734 734 734 733 733 733 733 733 733 733 733 733 734
729 731 732 733 731 729 726 725 725 726 727 727 728 728 729 729 730 730 731 732 733 733 734 734 735 735 735 735 736 736 736 737 737 737 737 737 737 737 737 737 736 736 735 735 735 735 734 734 734 733 733 733 733 733 733 733 733 733 732 732 732 732 732 732 732 732 732 733 733
725 729 731 732 731 730 728 726 726 726 727 727 727 728 728 728 729 729 729 730 731 732 732 733 734 734 734 734 735 735 736 736 736 737 737 737 737 737 737 736 736 735 734 734 734 734 733 733 733 733 733 733 733 732 732 732 732 732 732 732 732 732 732 732 732 732 732 732 732
723 726 729 730 730 729 728 727 727 727 727 727 727 727 727 727 727 728 728 729 730 731 731 732 732 733 733 734 734 735 735 736 736 736 737 737 737 737 736 736 735 734 734 733 733 733 732 732 732 732 732 732 732 732 732 732 731 731 731 731 731 731 731 731 731 731 731 731 731
722 724 727 728 729 728 727 726 727 727 727 727 727 727 727 727 727 727 727 728 728 729 730 731 732 732 733 733 734 735 735 735 736 736 736 736 736 736 736 735 735 734 733 732 732 732 732 732 732 732 732 732 732 732 731 731 731 731 730 730 730 730 730 730 730 730 730 730 730
721 723 725 727 727 726 725 726 727 727 728 727 727 726 726 726 727 727 727 727 728 729 729 730 731 732 732 733 734 734 735 735 736 736 736 736 736 735 735 735 734 733 732 732 731 731 731 731 731 731 731 731 731 731 731 731 730 730 730 730 730 730 730 730 730 730 730 730 730
721 722 723 725 725 724 724 725 727 727 728 727 726 726 726 726 727 727 727 727 727 728 729 730 731 732 732 733 734 734 735 735 735 735 735 735 735 735 734 734 733 732 732 731 730 730 730 730 731 731 731 731 731 731 731 731 730 730 730 730 730 730 730 730 730 730 730 730 730
722 721 722 722 723 724 725 726 727 727 727 727 726 726 726 727 727 727 727 727 727 727 728 730 731 732 732 733 734 734 735 735 735 735 735 734 734 734 734 733 732 732 731 730 730 730 730 730 730 731 731 731 731 731 731 731 731 730 730 730 730 730 730 730 730 730 730 730 730
724 722 721 721 722 723 724 726 727 727 727 727 726 726 726 726 726 726 726 726 726 727 729 730 732 732 733 733 733 734 734 735 735 735 734 734 733 733 733 733 732 731 730 730 730 729 730 730 730 731 731 731 731 731 731 731 731 731 731 731 730 730 730 730 730 730 730 730 730
725 725 723 722 721 722 724 725 726 727 727 727 726 726 726 725 725 725 725 725 726 728 730 731 732 732 733 733 733 734 734 734 734 734 734 733 733 733 732 732 732 731 730 730 730 730 730 730 731 731 732 732 732 731 731 731 731 731 731 731 731 731 731 731 731 731 731 730 730
727 727 726 725 723 723 723 725 726 727 727 726 726 725 725 724 724 724 724 725 727 728 730 732 732 733 733 733 734 734 734 734 734 734 734 733 733 732 732 732 732 731 730 730 730 729 730 730 731 732 732 732 732 732 732 732 732 732 731 731 731 731 731 731 731 731 731 731 730
728 727 727 727 726 725 725 726 727 727 727 726 725 724 723 723 723 724 724 726 727 729 731 732 732 733 733 733 734 734 734 734 734 734 733 733 732 732 732 732 732 732 731 731 730 730 730 731 731 732 732 732 732 733 733 733 732 732 732 732 732 732 732 732 732 731 731 731 731
729 729 729 729 728 728 727 727 728 727 726 725 723 722 722 723 723 724 725 726 728 729 731 732 732 733 733 733 734 734 734 734 734 733 733 733 732 732 732 732 732 732 732 731 731 731 731 731 732 732 732 732 733 733 733 733 733 733 733 733 732 732 732 732 732 732 732 732 731
730 731 731 731 731 730 730 730 729 727 726 724 722 722 722 723 724 725 725 727 728 730 731 732 732 733 733 733 734 734 734 734 734 733 733 732 732 732 732 732 732 732 732 732 732 731 731 731 732 732 732 733 733 733 733 734 734 734 734 733 733 733 733 733 733 732 732 732 732
732 732 732 733 733 733 732 732 730 728 725 723 723 723 723 724 724 725 726 727 728 730 731 732 732 733 733 734 734 734 734 734 734 733 733 733 732 732 733 733 732 732 732 732 732 732 732 732 732 733 733 733 733 733 734 734 734 734 734 734 734 734 734 734 733 733 732 732 732
733 733 734 734 734 734 734 733 731 728 726 724 724 724 724 724 725 725 726 727 729 730 732 732 732 733 733 734 734 734 734 734 734 734 733 733 733 733 733 733 733 732 732 732 732 732 732 733 733 733 734 734 733 733 734 734 734 734 734 734 734 734 734 734 734 734 733 733 733
734 735 735 736 736 736 735 734 732 730 727 726 725 725 725 725 725 725 727 728 730 731 732 732 733 733 733 734 734 734 734 735 735 734 734 734 734 734 734 733 733 733 733 733 733 733 734 734 734 734 734 734 734 734 734 734 734 735 735 735 735 735 735 735 734 734 734 734 733
736 736 736 736 736 736 735 734 733 731 730 728 727 726 725 725 726 726 727 729 730 731 732 732 733 733 734 734 735 735 735 735 735 735 735 734 734 734 734 734 734 733 733 733 734 734 735 735 735 735 735 735 734 734 734 735 735 735 735 735 736 736 735 735 735 734 734 734 734
737 737 737 737 736 736 736 735 734 733 731 730 728 727 726 726 727 727 729 730 731 732 732 733 733 733 734 735 735 735 735 735 735 735 735 735 735 735 734 734 734 734 734 734 735 735 735 736 736 736 736 735 735 735 735 735 736 736 736 736 736 737 736 736 735 735 734 734 734
737 737 737 737 737 736 736 736 735 734 732 731 729 728 727 727 728 729 730 731 732 732 732 733 733 734 735 735 736 736 736 736 736 736 735 735 735 735 735 735 735 735 735 735 736 736 736 736 736 736 736 736 736 736 736 736 737 737 737 737 737 737 737 736 736 735 735 734 734
738 738 737 737 737 737 736 736 735 734 733 732 730 729 729 729 730 731 731 732 732 733 733 733 734 735 735 736 736 736 737 737 737 736 736 736 736 736 735 735 736 736 736 736 736 737 737 737 737 737 737 737 737 737 737 737 737 737 737 737 737 737 737 736 736 735 735 735 734
738 738 738 737 737 737 737 736 736 735 733 732 732 731 731 731 732 732 732 733 734 734 734 734 735 735 736 736 736 737 737 737 737 737 737 737 737 737 736 736 737 737 737 737 737 737 737 737 737 737 737 737 737 737 737 737 737 737 737 737 737 737 736 736 736 736 735 735 735
739 738 738 738 738 737 737 737 736 735 734 734 733 733 733 733 733 733 734 734 735 735 736 736 736 736 737 737 737 737 737 737 737 737 737 738 737 737 737 737 737 738 738 738 738 737 738 738 738 738 737 737 737 737 737 737 737 737 737 737 737 737 736 736 736 736 736 735 735
739 739 739 739 738 738 737 737 737 736 735 735 735 735 735 734 735 735 735 736 736 736 737 737 737 737 737 738 738 738 738 738 738 738 738 738 738 738 738 738 738 738 739 739 738 738 738 738 738 738 738 738 738 738 738 737 737 737 737 737 737 737 737 736 736 736 736 735 735
740 740 740 739 739 739 738 738 737 737 737 736 736 736 736 736 736 736 737 737 737 737 737 737 737 738 738 738 739 739 739 739 739 739 739 739 738 738 738 738 739 739 739 739 739 739 738 738 738 738 738 738 738 738 738 738 737 737 737 737 737 737 737 736 736 736 735 735 735
741 741 740 740 740 739 739 739 738 738 738 738 737 737 737 737 737 737 737 738 738 738 738 738 738 738 739 739 739 739 740 740 740 740 739 739 739 739 739 739 739 739 739 739 740 739 739 738 738 738 738 738 738 738 738 738 737 737 737 737 737 737 737 736 736 736 735 735 735
742 741 741 741 741 741 740 740 740 739 739 739 739 738 738 738 738 738 738 739 739 739 739 739 739 739 740 740 740 740 740 740 740 740 740 740 740 740 740 740 740 739 739 739 739 739 739 739 738 738 738 738 738 738 738 737 737 737 737 737 737 737 737 736 736 736 735 735 735
743 742 742 742 742 742 742 742 741 741 740 740 740 739 739 739 739 739 739 739 739 739 739 740 740 740 740 740 741 741 741 741 741 741 741 741 741 740 740 740 740 739 739 739 739 739 739 739 738 738 738 738 738 738 738 738 738 737 737 737 737 737 737 736 736 736 735 735 735
744 744 743 743 743 743 743 743 742 742 742 741 741 740 740 740 739 739 740 740 740 740 740 740 741 741 741 741 741 742 742 742 742 742 742 741 741 741 740 740 740 740 739 739 739 739 739 739 738 738 738 738 738 738 738 738 738 738 737 737 737 737 736 736 736 736 735 735 735
745 745 745 745 745 744 744 744 744 743 743 743 742 742 741 741 740 740 740 740 740 741 741 741 741 741 741 742 742 742 742 742 742 742 742 742 741 741 740 740 740 740 740 739 739 739 739 738 738 738 738 738 738 738 738 738 738 738 737 737 737 737 736 736 736 736 735 735 735
746 746 746 746 746 746 745 745 745 745 744 744 743 743 742 742 742 741 741 741 741 741 741 741 742 742 742 742 742 742 743 743 743 742 742 742 741 741 741 741 741 740 740 739 739 739 739 739 738 738 738 738 738 739 738 738 738 738 738 738 737 737 736 736 736 735 735 735 735